Weather History for Fargo, ND

Change the Weather History Date:

Sunday, February 23, 2014

  Actual Average Record
Temperature  
Mean Temperature 6 °F 18 °F  
Max Temperature 14 °F 26 °F 56 °F (1958)
Min Temperature -2 °F 9 °F -35 °F (1889)
Degree Days  
Heating Degree Days 59 47  
Month to date heating degree days 1347 1181  
Since 1 July heating degree days 6939 6449  
Cooling Degree Days 0 0  
Month to date cooling degree days 0 0  
Year to date cooling degree days 0 0  
Moisture  
Dew Point -2 °F    
Average Humidity 70    
Maximum Humidity 79    
Minimum Humidity 61    
Precipitation  
Precipitation 0.00 in 0.03 in 0.73 in (1977)
Month to date precipitation 0.11 0.46  
Year to date precipitation 0.88 1.16  
Snow  
Snow 0.00 in 0.30 in 6.30 in (1991)
Month to date snowfall 1.4 5.5  
Since 1 July snowfall 27.5 36.5  
Snow Depth 11.00 in    
Sea Level Pressure  
Sea Level Pressure 30.34 in    
Wind  
Wind Speed 14 mph (WNW)    
Max Wind Speed 22 mph    
Max Gust Speed 28 mph    
Visibility 10 miles    
Events      
T = Trace of Precipitation, MM = Missing Value Source: NWS Daily Summary

Daily Weather History Graph

Daily Weather History Graph

Search for Another Location

Airport:

Trip Planner

Search our weather history database for the weather conditions in past years. The results will help you decide how hot, cold, wet, or windy it might be!

Date:

Astronomy

Feb. 23, 2014 Rise Set
Actual Time 7:17 AM CST 6:04 PM CST
Civil Twilight 6:47 AM CST 6:34 PM CST
Nautical Twilight 6:11 AM CST 7:10 PM CST
Astronomical Twilight 5:36 AM CST 7:45 PM CST
Moon 2:28 AM CST (2/23) 11:55 AM CST (2/23)
Length of Visible Light 11h 47m
Length of Day
10h 46m
Last Quarter, 38% of the Moon is Illuminated
Feb 23
Last Quarter
Mar 1
New
Mar 8
First Quarter
Mar 16
Full
Mar 23
Last Quarter

Hourly Weather History & Observations

Time (CST) Temp. Windchill Dew Point Humidity Pressure Visibility Wind Dir Wind Speed Gust Speed Precip Events Conditions
12:53 AM 1.0 °F -15.8 °F -6.0 °F 72% 30.24 in 10.0 mi West 11.5 mph - N/A   Clear
1:53 AM 1.0 °F -15.8 °F -6.0 °F 72% 30.25 in 10.0 mi West 11.5 mph - N/A   Clear
2:53 AM -0.0 °F -16.3 °F -7.1 °F 72% 30.25 in 10.0 mi West 10.4 mph - N/A   Mostly Cloudy
3:53 AM -0.0 °F -15.3 °F -7.1 °F 72% 30.26 in 10.0 mi West 9.2 mph - N/A   Overcast
4:53 AM 3.9 °F -13.0 °F -2.9 °F 73% 30.27 in 10.0 mi WNW 12.7 mph - N/A   Overcast
5:53 AM 6.1 °F -11.6 °F -0.9 °F 73% 30.29 in 10.0 mi WNW 15.0 mph - N/A   Overcast
6:53 AM 7.0 °F -9.8 °F -0.0 °F 73% 30.29 in 10.0 mi WNW 13.8 mph - N/A   Overcast
7:53 AM 7.0 °F -9.1 °F -0.0 °F 73% 30.30 in 10.0 mi WNW 12.7 mph - N/A   Overcast
8:53 AM 7.0 °F -11.0 °F -0.9 °F 70% 30.32 in 10.0 mi WNW 16.1 mph - N/A   Clear
9:53 AM 8.1 °F -10.2 °F -0.9 °F 67% 30.34 in 10.0 mi WNW 17.3 mph - N/A   Clear
10:53 AM 9.0 °F -10.0 °F -0.0 °F 67% 30.35 in 10.0 mi NW 19.6 mph - N/A   Clear
11:53 AM 10.9 °F -7.5 °F 1.0 °F 64% 30.36 in 10.0 mi NW 19.6 mph - N/A   Clear
12:53 PM 12.9 °F -4.9 °F 1.9 °F 62% 30.36 in 10.0 mi NW 19.6 mph - N/A   Clear
1:53 PM 14.0 °F -3.4 °F 3.0 °F 62% 30.36 in 10.0 mi WNW 19.6 mph - N/A   Clear
2:53 PM 14.0 °F -3.4 °F 3.0 °F 62% 30.36 in 10.0 mi NW 19.6 mph - N/A   Clear
3:53 PM 12.9 °F -4.4 °F 3.0 °F 65% 30.37 in 10.0 mi WNW 18.4 mph - N/A   Clear
4:53 PM 12.0 °F - 1.9 °F 64% 30.37 in 10.0 mi North - - N/A   Clear
5:53 PM 9.0 °F -5.9 °F 1.0 °F 70% 30.38 in 10.0 mi WNW 11.5 mph - N/A   Clear
6:53 PM 7.0 °F -10.4 °F -2.0 °F 67% 30.40 in 10.0 mi WNW 15.0 mph - N/A   Clear
7:53 PM 5.0 °F -12.3 °F -2.9 °F 70% 30.40 in 10.0 mi NW 13.8 mph - N/A   Clear
8:53 PM 3.9 °F -11.3 °F -5.1 °F 66% 30.41 in 10.0 mi WNW 10.4 mph - N/A   Clear
9:53 PM 1.9 °F -13.8 °F -6.0 °F 69% 30.42 in 10.0 mi WNW 10.4 mph - N/A   Clear
10:53 PM -0.0 °F -16.3 °F -8.0 °F 69% 30.42 in 10.0 mi WNW 10.4 mph - N/A   Clear
11:53 PM -0.9 °F -16.4 °F -9.0 °F 69% 30.42 in 10.0 mi WNW 9.2 mph - N/A   Clear